Regional Weather Roundup
Issued by NWS

Home | Current Version | Previous Version | Graphics & Text | Print | Product List | Glossary On
Versions: 1 2 3 4 5 6 7 8 9 10 11 12 13 14 15 16 17 18 19 20 21 22 23 24 25 26 27 28 29 30 31 32 33 34 35 36 37 38 39 40 41 42 43 44 45 46 47 48 49 50
000
ASUS43 KFSD 292302
RWRSD

WEATHER ROUNDUP FOR SOUTH DAKOTA
NATIONAL WEATHER SERVICE SIOUX FALLS SD
600 PM CDT WED MAR 29 2017

NOTE: "FAIR" INDICATES FEW OR NO CLOUDS BELOW 12,000 FEET WITH NO
SIGNIFICANT WEATHER AND/OR OBSTRUCTIONS TO VISIBILITY.


SDZ001>005-009-010-012>017-300000-
NORTHWEST AND NORTH CENTRAL SOUTH DAKOTA

CITY           SKY/WX    TMP DP  RH WIND       PRES   REMARKS
BUFFALO          N/A     63  29  27 W12       29.86F
FAITH            N/A     56  39  53 MISG      29.96F
MOBRIDGE       MOSUNNY   63  27  25 S7        29.95F
$$

SDZ012>016-024>037-041>051-057-063-072>074-300000-
SOUTHWEST AND SOUTH CENTRAL SOUTH DAKOTA

CITY           SKY/WX    TMP DP  RH WIND       PRES   REMARKS
RAPID CTY ARPT SUNNY     54  37  52 NE5       29.97S
PIERRE         CLOUDY    57  34  41 SE17      29.98F
CUSTER         CLOUDY    44  36  73 E12       29.98F
ELLSWORTH AFB  MOSUNNY   56  38  50 CALM      29.96F
PHILIP         CLOUDY    58  39  49 E5        29.97F
PINE RIDGE     PTSUNNY   55  38  52 NE10      29.97F
SPEARFISH      FAIR      55  36  47 E13       29.95F
WINNER         CLOUDY    50  38  63 E16       30.02R
$$

SDZ004>011-016>023-039-040-300000-
NORTHEAST SOUTH DAKOTA

CITY           SKY/WX    TMP DP  RH WIND       PRES   REMARKS
ABERDEEN       MOSUNNY   58  32  37 SE15      30.03F
WATERTOWN      CLOUDY    48  35  60 SE15      30.07S
BROOKINGS      CLOUDY    44  36  73 E18G26    30.06F
SISSETON         N/A     56  36  47 S21G26    30.06S
$$

SDZ017-020-022-023-036>040-048>070-300000-
SOUTHEAST SOUTH DAKOTA

CITY           SKY/WX    TMP DP  RH WIND       PRES   REMARKS
SIOUX FALLS    LGT RAIN  43  41  93 E20G26    30.04F
HURON          CLOUDY    53  36  52 E15       30.04S
CHAMBERLAIN    CLOUDY    52  36  54 E13G20    30.03S
MITCHELL       CLOUDY    50  36  58 E21       30.04F
YANKTON        CLOUDY    41  37  87 NE21G29   30.00S
$$

ABBREVIATIONS USED IN REMARKS
   TC - TEMPERATURE IN CELSIUS
  WCI - WIND CHILL INDEX
   HX - HEAT INDEX
  VSB - VISIBILITY





USA.gov is the U.S. government's official web portal to all federal, state and local government web resources and services.